STARLINK-1545, 46156

Orbit data source: Space-Track

STARLINK-1545, 46156 is a payload satellite owned by SpaceX/Seattle (US) in LEO that was launched on Tue, 18 Aug 2020 UTC via an FALCON 9 launch vehicle from the Air Force Eastern Test Range (AFETR). Payload-class satellites include a variety of spacecraft equipped with specific instruments for various scientific and technological missions. These include communications satellites like Starlink; space stations such as the ISS; scientific satellites like the Hubble; Earth observation satellites from companies like Planet Labs, Umbra, and HawkEye 360; GPS; miniature CubeSats for education and research; and military/defense satellites.

Loading next visibility...
Identifier
46156, 2020-057AR
Orbit
LEO
Country
Flag of USUS
Related business
Manufacturer
SpaceX/Seattle
Mission
Operational Commercial Communications
Bus & Motor
STARLINK, Unknown motor
Mass
260 kg wet, ~248 kg dry
Launch date (UTC)
2020-08-18 (5 years ago)
Launch vehicle
FALCON 9
Launch site
Air Force Eastern Test Range (AFETR)
Object type
Payload
Rocket body
Debris
Shape & HBR
Box + 1 Pan, 10.1 m
Radar Cross Section
13.562 m², Large (>1 m²)

Expand to show TLE details & history
Last TLE update: 17 hours ago

TLE from 17 hours ago
0 STARLINK-1545
1 46156U 20057AR  25287.00005787  .01114629  00000-0  57492-1 0  9999
2 46156  53.0536 235.0353 0001982  83.3926  79.9048 15.13024186  5753
Epoch: 2025-10-14T00:00Z
TLE epoch observation values (Epoch: 2025-10-14T00:00:04.999Z)
Latitude
13.26429°
Longitude
22.06439°
Altitude
526.871 km
Speed
7.602 km/s
True Right ascension
02h 59m 31s
True Declination
13° 11' 06"
Sunlit
Object was in full shadow at epoch
Visualization orbit readout
Latitude
Unknown
Longitude
Unknown
Altitude
Unknown
Speed
Unknown
Apparent Right ascension
Unknown
Apparent Declination
Unknown
Sunlit
N/A
Visualization observer readout
Local Sidereal Time
11:29:39
Azimuth
Unknown
Elevation
Unknown
Doppler factor
Unknown
Orbital elements
Apogee altitude
528.624 km
Perigee altitude
525.886 km
Semi-major axis
6,905.392 km
Eccentricity
0.0002
Inclination
53.0536°
RAAN
235.0353°
Arg. of periapsis
83.3926°
True anomaly
79.92716°
Mean anomaly
79.9048°
Eccentric anomaly
79.91598°
Mean motion
3.78234 °/min
Orbital period
95.18 mins
BSTAR
0.057492
Loading maneuver chart data...
Computing Atmospheric mass density...
Loading historical data...
Loading historical data...
Loading historical data...
Loading historical data...
Loading historical data...
Loading historical data...
Loading historical data...

Documentation

Showing up to 5 results
|